User: anonymous
Location: Unspecified
(0.0000°N, 0.0000°E)
Time: 17:51:55
(UTC+02:00)
Language:

YAOGAN 3 - Orbit

View from above orbital plane
View from above orbital plane
View from above satellite
View from above satellite

Ground track
Ground track

The orbit data is extracted from the following two-line orbital elements,

1 32289U 07055A   14273.09788358  .00001332  00000-0  17453-3 0  6333
2 32289 097.9462 264.2579 0001614 073.8484 286.2908 14.82006799372063
Epoch (UTC): 30 September 2014 02:20:57
Eccentricity: 0.0001614
inclination: 97.9462°
perigee height: 622 km
apogee height: 624 km
right ascension of ascending node: 264.2579°
argument of perigee: 73.8484°
revolutions per day: 14.82006799
mean anomaly at epoch: 286.2908°
orbit number at epoch: 37206

The dashed part of the orbit path shows where the satellite is in the earth's shadow,  

DLR